sat.trackr.live / text

‹ back to catalog

GNOMES-5

NORAD 60574 · 2024-149DL

PAYLOAD ACTIVE UNKNOWN

§ Identity

Operator
Country
US
Launch date
2024-08-16
Launch site
AFWTR
Launch vehicle
Mass (kg)
RCS (m²)

External: N2YO · Heavens-Above · Gunter

§ Orbital elements

Epoch: 2026-09-22T17:26:14.691552Z

Period
95.89 min
Inclination
97.7046°
Eccentricity
0.0008259
Mean motion
15.01779410 rev/d
Perigee alt
555.7 km
Apogee alt
567.1 km
Semi-major
6,939.5 km
B*
1.2592e-4
RAAN
343.1617°
Arg perigee
169.3680°
Mean anomaly
190.7721°
Rev number
11,479

§ Raw data

GNOMES-51 60574U 24149DL  26265.72655893  .00001581  00000+0  12592-3 0  99942 60574  97.7046 343.1617 0008259 169.3680 190.7721 15.01779410114793

JSON: /api/v1/satellites/60574 · /tle

For live sub-satellite position, see the globe view (requires WebGL).

§ Visibility from observer

Set your observer location to see the next 7 days of passes ≥ 10°. The values pass through the URL so the page stays shareable.

No JS? Fill the form by hand. The geolocation button needs JavaScript.